Wind_Gust
16 13 13 12 13 13 14 14 15 16 16 15 16 14 15 12 11 11 11 10 10 10 9 9 8 8 9 10 10 9 9 9 9 9 9 10 8 10 11 9 9 10
14 13 12 11 10 9 11 11 15 16 17 16 14 14 10 11 10 11 11 11 10 10 9 8 9 9 10 10 11 11 9 9 9 8 10 10 9 10 10 10 10 9
15 16 16 15 14 12 13 10 9 11 13 15 12 11 11 11 12 11 11 11 11 10 10 9 9 9 9 9 10 10 10 9 9 8 9 10 9 10 9 10 9 11
15 15 15 14 13 13 12 12 10 9 9 11 13 13 12 11 11 12 10 11 11 10 10 10 10 9 9 9 9 9 9 8 8 9 8 7 8 10 10 10 9 9
9 11 10 11 11 10 10 13 13 11 11 11 11 11 12 11 11 11 10 8 9 9 9 10 9 9 9 10 9 9 8 8 8 9 10 9 8 10 10 11 11 10
10 11 11 11 12 13 13 14 15 14 15 16 16 8 8 9 11 11 10 9 9 10 9 9 10 9 10 10 9 9 9 9 8 9 10 10 8 7 9 9 10 10
9 10 11 11 10 13 15 15 16 15 14 15 11 11 11 9 9 9 9 10 10 10 10 10 10 10 9 10 9 9 8 9 9 9 10 8 9 8 6 8 9 9
13 15 18 15 10 12 16 16 15 14 13 11 11 9 10 11 10 9 9 10 10 9 9 10 10 11 11 11 11 10 8 7 9 9 9 9 8 9 8 7 8 10
15 13 17 12 10 15 16 19 15 11 13 15 12 10 8 13 13 12 11 10 9 9 10 10 11 12 11 13 12 12 12 9 9 10 10 10 9 9 9 8 9 9
10 9 12 8 14 17 16 15 13 11 11 13 11 10 13 12 14 13 12 11 10 9 9 10 10 10 11 11 13 13 12 12 10 9 10 10 10 10 10 10 10 9
12 12 8 11 14 14 15 12 10 11 10 10 10 10 12 13 11 10 11 12 12 11 11 11 11 11 11 9 9 10 12 12 10 9 9 8 9 10 9 10 10 11
9 9 10 11 13 13 11 10 13 15 13 9 11 10 8 9 11 8 11 11 10 11 11 11 10 11 12 12 11 10 9 9 9 9 9 9 8 9 10 10 11 11
6 9 11 13 14 11 12 13 11 11 11 12 11 10 10 9 8 9 6 10 8 9 10 11 10 9 10 10 10 10 11 11 11 10 8 8 7 7 7 8 10 11
4 9 13 13 12 12 11 12 13 12 10 11 12 14 16 9 9 9 6 7 8 8 8 9 9 9 8 9 10 11 12 11 11 11 11 9 8 7 7 7 7 7
8 8 9 10 11 14 13 12 12 11 12 13 12 12 12 9 8 9 10 8 7 7 8 7 9 10 10 11 11 9 11 13 12 12 13 12 10 8 7 7 8 7
11 11 9 9 10 11 11 9 11 11 12 10 10 9 8 7 8 8 10 10 10 8 7 8 7 7 9 13 11 14 12 12 12 13 13 13 13 11 9 9 10 10
8 8 10 10 10 10 13 12 10 10 10 12 9 8 9 8 10 10 8 8 10 11 10 6 5 6 11 12 13 15 15 14 14 12 11 13 13 14 12 12 12 11
10 8 9 10 9 10 11 13 12 11 11 11 12 8 9 10 11 10 10 9 10 10 9 7 5 6 13 14 15 16 14 17 14 15 12 12 12 13 13 13 13 13
9 8 10 7 8 9 10 11 10 10 9 12 12 8 9 12 10 10 10 9 11 11 9 6 6 6 11 15 15 16 16 15 14 14 14 12 13 14 14 14 13 14
9 8 9 10 7 8 10 10 9 8 7 10 12 10 12 12 9 11 9 9 10 12 10 8 8 6 9 12 15 16 16 14 14 14 13 13 12 12 12 12 12 14
12 9 8 9 10 11 10 11 10 11 11 10 13 13 13 13 13 11 9 10 10 11 13 11 10 9 10 12 16 16 17 13 16 15 15 14 12 11 12 12 12 14
14 11 10 9 11 15 14 14 15 14 14 13 13 14 11 14 12 12 12 12 9 9 14 12 11 12 11 11 17 17 16 15 16 18 17 16 15 13 14 12 12 13
16 13 12 11 8 13 15 15 15 14 14 16 18 14 15 13 13 12 10 12 13 11 13 13 11 10 11 10 9 15 15 16 17 18 18 17 14 12 13 12 11 10
16 15 13 12 11 12 12 14 16 16 14 18 13 18 16 13 14 16 15 13 15 15 12 14 11 11 10 6 9 13 16 19 16 18 16 17 14 13 11 13 14 16
16 16 15 14 13 11 11 15 14 18 15 19 16 14 16 14 14 17 16 15 15 16 16 15 12 11 13 11 13 12 14 16 20 19 18 14 15 15 13 13 13 15
17 16 16 14 13 12 10 14 16 17 20 20 18 13 18 16 16 16 17 15 14 17 18 16 15 13 15 13 12 14 14 19 18 20 16 17 16 14 14 12 12 13
Wind_Speed
7 6 5 4 5 5 5 6 6 7 6 6 6 6 7 6 6 7 7 6 6 6 6 6 5 6 6 6 6 5 5 6 5 5 6 5 5 6 6 6 6 6
5 4 1 1 2 2 4 5 5 7 6 5 5 5 5 6 6 7 7 7 6 6 6 6 6 6 6 6 7 6 5 5 6 4 6 6 5 6 6 7 6 5
3 4 3 4 5 5 6 6 5 5 6 5 4 5 5 5 7 6 7 7 7 6 6 6 6 6 6 6 6 6 6 6 5 5 5 7 5 6 6 6 5 7
3 4 5 5 5 6 6 6 5 5 5 5 3 1 2 5 6 6 6 7 6 6 6 6 6 6 6 6 6 5 5 5 5 6 5 4 5 6 6 6 5 5
3 4 5 5 5 5 5 6 6 4 5 5 5 6 5 5 5 5 5 5 5 6 6 6 6 6 6 6 6 5 5 5 5 5 6 5 5 6 6 6 6 6
3 4 5 5 4 5 4 4 8 8 9 10 7 4 4 4 5 6 6 6 6 6 6 6 6 6 6 6 6 5 5 5 5 6 6 6 5 4 5 5 6 6
1 1 3 6 6 3 6 6 8 7 5 4 6 7 7 6 5 6 6 6 7 6 7 7 6 6 6 6 6 6 5 5 6 6 6 5 5 4 4 5 6 6
7 8 2 3 2 3 7 8 6 5 6 7 7 6 7 7 6 5 5 6 6 6 6 6 6 7 7 7 7 6 5 4 6 6 6 5 5 6 5 4 5 6
3 2 2 3 5 7 9 10 6 5 5 6 6 6 6 7 7 7 7 7 6 6 6 6 7 7 7 8 7 8 7 6 6 6 7 6 6 6 6 5 5 5
4 3 4 5 7 7 8 2 5 7 6 6 6 6 6 4 5 6 6 7 6 6 6 7 7 7 7 7 8 8 8 7 7 6 6 6 6 6 6 6 6 6
3 4 4 5 7 6 5 6 7 7 6 6 6 6 5 5 4 5 4 5 7 7 7 7 7 7 7 6 6 7 8 7 7 6 6 5 6 6 6 7 6 7
2 4 5 7 7 5 4 5 5 4 4 4 5 5 4 3 4 4 4 5 6 7 7 7 6 7 8 7 7 6 6 6 6 6 6 6 5 6 6 6 7 7
2 4 6 6 4 4 5 4 5 7 6 6 4 6 6 5 3 3 3 4 5 6 7 7 7 6 6 6 7 7 7 7 7 6 5 5 4 4 4 5 6 7
1 4 5 5 3 4 5 4 4 4 5 7 7 6 2 2 4 3 2 2 4 5 5 6 6 5 5 6 6 7 7 7 7 7 6 5 5 4 4 4 4 4
1 4 5 4 4 5 4 4 4 4 5 5 6 7 5 1 4 3 4 4 4 4 5 4 5 6 6 6 6 6 7 8 7 8 7 7 6 5 4 4 4 3
2 3 4 4 4 5 5 5 4 5 6 5 4 6 5 4 4 4 4 6 6 5 5 4 4 4 6 11 10 8 7 6 6 6 7 7 7 6 5 5 5 6
2 1 2 4 3 4 6 7 6 6 6 5 5 4 5 4 5 6 4 4 6 7 6 4 3 3 9 10 11 13 10 8 8 7 7 7 7 8 7 7 7 7
6 3 0 2 2 2 2 4 6 7 7 7 5 5 5 5 5 6 6 6 5 6 6 4 3 5 10 11 13 14 12 10 8 8 6 6 7 8 7 8 8 7
5 5 2 3 3 2 2 3 4 6 6 7 6 4 3 6 5 5 6 5 6 7 6 4 4 4 8 12 12 13 13 11 7 8 8 7 8 8 8 8 8 8
6 4 4 3 3 2 2 3 3 4 4 6 5 7 4 4 4 5 6 5 5 6 6 5 5 4 6 9 12 13 12 11 8 8 8 8 7 7 7 7 7 8
7 6 5 3 2 4 4 4 5 7 7 5 5 4 4 6 5 6 6 6 5 5 7 7 5 8 8 8 12 14 15 11 9 9 8 8 7 7 7 7 7 7
9 7 6 6 4 5 5 6 7 8 7 6 6 6 5 5 6 6 6 6 6 6 7 8 6 9 10 9 9 14 14 9 9 10 10 10 8 7 7 6 7 8
10 8 7 7 5 6 7 6 7 8 8 7 7 5 3 7 5 7 6 6 6 6 8 8 6 7 9 9 9 13 12 8 10 10 11 10 9 7 7 7 6 5
9 9 8 7 6 5 5 7 7 8 7 8 8 5 5 7 6 8 9 7 7 7 5 8 7 6 7 6 8 7 9 10 9 10 9 10 8 7 6 6 8 12
9 8 9 8 8 6 5 7 8 8 8 9 9 5 7 7 8 8 9 9 8 8 11 9 7 8 9 10 11 11 10 8 8 9 10 8 8 8 7 7 7 10
9 10 9 9 8 7 6 6 7 9 10 11 9 6 6 8 9 9 10 9 8 9 9 8 9 8 9 7 10 12 12 10 10 10 8 9 9 8 8 7 7 7
Wind_Direction
228 224 201 173 190 192 185 183 179 182 188 185 186 185 177 163 155 165 165 163 170 171 175 178 173 168 158 156 163 165 179 182 172 164 173 165 159 161 167 169 171 174
296 312 342 168 181 186 192 191 185 185 184 179 189 181 163 153 165 163 165 169 167 170 168 163 170 169 161 156 162 164 165 169 169 158 161 168 165 166 177 177 174 154
297 276 258 216 199 197 195 183 177 181 175 166 162 172 169 170 166 170 168 170 170 168 165 164 161 165 164 158 160 161 166 165 162 157 158 167 157 172 179 172 160 173
212 219 243 233 207 201 191 176 170 167 162 150 124 71 179 173 171 169 170 176 170 169 162 158 162 158 157 153 153 158 164 167 156 147 152 139 166 163 167 166 155 155
243 234 241 238 223 200 172 178 165 105 67 85 134 174 200 189 167 163 164 166 170 162 160 160 156 155 149 148 153 151 155 150 141 147 144 152 165 163 169 160 156 152
253 243 254 268 255 225 170 118 98 142 174 179 170 132 163 171 163 165 166 164 168 162 160 159 154 153 148 143 148 156 151 144 153 149 147 151 157 162 158 159 149 149
339 68 190 217 233 242 79 107 184 181 175 125 132 165 162 165 167 167 170 169 163 165 164 161 158 151 146 142 145 146 152 149 152 152 148 150 136 140 151 151 155 142
180 204 204 34 6 35 101 205 202 180 174 159 167 151 151 154 157 153 161 164 161 162 163 163 160 154 150 148 144 145 147 154 152 154 149 152 150 148 153 145 139 136
215 163 97 152 115 133 187 207 158 183 175 163 166 156 153 159 159 157 154 156 157 156 156 160 161 158 159 152 152 153 153 158 164 160 158 155 160 158 152 140 137 142
161 119 134 139 157 176 207 174 147 180 174 166 162 156 155 166 160 159 154 149 146 145 152 155 158 155 156 157 156 154 154 158 162 164 161 164 161 152 150 151 146 130
128 129 157 167 184 201 176 147 181 175 168 154 146 154 150 142 145 138 148 153 151 155 153 159 161 155 152 152 153 154 152 154 154 152 152 153 157 157 155 145 149 146
131 142 194 200 193 195 178 182 175 143 122 135 134 131 131 142 149 140 158 178 163 159 158 157 155 158 159 160 154 145 137 133 129 128 136 145 153 154 155 154 149 151
166 170 199 208 188 171 175 175 163 156 140 110 120 141 134 139 125 129 178 171 163 151 155 156 157 157 152 149 146 136 132 127 117 114 121 127 130 142 134 142 149 150
205 182 203 206 159 168 170 171 174 129 116 128 130 122 123 168 139 150 140 124 155 153 148 148 145 142 142 145 142 140 130 123 124 125 119 109 101 88 90 112 133 144
201 186 204 190 169 169 160 152 164 139 133 136 132 131 136 213 96 122 120 102 81 102 118 121 141 150 153 149 136 129 127 129 132 130 128 120 106 89 81 88 94 97
185 186 194 175 173 159 140 141 146 127 135 138 148 141 139 133 143 159 147 141 113 99 96 109 131 152 162 160 153 145 133 127 126 131 131 129 122 109 87 76 70 69
336 206 182 172 154 136 143 142 137 138 143 139 135 132 134 144 159 141 140 126 125 125 114 103 127 152 148 145 141 135 134 137 135 134 128 127 127 120 108 93 78 71
336 338 81 90 82 122 131 123 133 137 138 140 136 132 135 138 145 141 133 120 110 108 109 117 124 143 143 140 140 141 140 138 137 132 128 121 118 112 110 105 97 85
348 9 354 104 96 105 78 83 123 120 142 160 135 86 106 139 139 138 124 117 120 116 103 89 93 122 148 142 140 139 137 130 122 122 119 117 115 117 118 116 113 99
354 13 28 30 77 65 93 77 65 93 98 69 87 116 113 111 113 116 107 109 110 113 103 72 69 60 121 131 128 126 119 109 107 105 101 100 104 108 108 105 104 110
1 13 25 18 61 85 66 64 59 56 55 70 93 83 118 131 139 118 100 94 88 97 99 72 55 61 81 111 123 117 109 105 105 102 95 91 86 88 93 99 97 97
0 5 23 19 32 56 64 62 70 73 61 50 55 69 61 74 75 78 92 92 86 93 99 81 54 56 81 83 106 112 105 102 103 101 102 98 93 90 92 96 103 111
1 10 18 32 29 69 74 68 80 80 74 63 65 28 64 68 67 72 67 74 84 88 102 89 71 41 78 100 113 114 106 106 107 102 98 95 91 88 91 88 88 95
1 7 19 27 43 42 80 90 70 64 66 82 75 85 71 76 70 71 60 54 58 61 51 93 73 35 55 102 110 104 112 114 109 109 105 102 88 71 70 63 53 60
9 10 12 27 26 31 55 80 85 90 86 71 69 53 80 83 74 71 66 54 51 56 55 58 58 33 39 91 90 88 81 85 98 104 101 87 88 76 60 66 58 49
16 14 16 14 25 31 36 72 109 102 92 88 71 48 51 75 76 72 70 59 52 57 53 46 43 32 17 62 104 103 103 110 110 91 84 95 91 83 66 54 56 56